Weather History for Artesia, NM

Change the Weather History Date:

Thursday, March 7, 2013

  Actual Average Record
Temperature  
Mean Temperature 56 °F -  
Max Temperature 78 °F 67 °F 86 °F (1972)
Min Temperature 35 °F 28 °F 11 °F (1977)
Degree Days  
Heating Degree Days 8    
Growing Degree Days 6 (Base 50)    
Moisture  
Dew Point 19 °F    
Average Humidity 26    
Maximum Humidity 41    
Minimum Humidity 13    
Precipitation  
Precipitation 0.00 in - - ()
Sea Level Pressure  
Sea Level Pressure 29.98 in    
Wind  
Wind Speed 10 mph (SSE)    
Max Wind Speed 21 mph    
Max Gust Speed 25 mph    
Visibility 10 miles    
Events      
Averages and records for this station are not official NWS values.
T = Trace of Precipitation, MM = Missing Value Source: NWS Daily Summary

Daily Weather History Graph

Daily Weather History Graph

Search for Another Location

Airport:

Trip Planner

Search our weather history database for the weather conditions in past years. The results will help you decide how hot, cold, wet, or windy it might be!

Date:

Astronomy

Mar. 07, 2013 Rise Set
Actual Time 6:18 AM MST 6:00 PM MST
Civil Twilight 5:53 AM MST 6:24 PM MST
Nautical Twilight 5:24 AM MST 6:53 PM MST
Astronomical Twilight 4:56 AM MST 7:21 PM MST
Moon 3:08 AM MST (3/7) 2:01 PM MST (3/7)
Length of Visible Light 12h 31m
Length of Day
11h 42m
Waning Crescent, 19% of the Moon is Illuminated
Mar 7
Waning Crescent
Mar 11
New
Mar 19
First Quarter
Mar 27
Full
Apr 2
Last Quarter

Hourly Weather History & Observations

Time (MST) Temp. Windchill Dew Point Humidity Pressure Visibility Wind Dir Wind Speed Gust Speed Precip Events Conditions
12:15 AM 46.4 °F 40.4 °F 14.0 °F 27% 30.04 in 10.0 mi SSE 13.8 mph - N/A   Clear
12:35 AM 44.6 °F 40.2 °F 14.0 °F 29% 30.04 in 10.0 mi SSE 8.1 mph - N/A   Clear
12:55 AM 42.8 °F 38.0 °F 14.0 °F 31% 30.03 in 10.0 mi SSE 8.1 mph - N/A   Clear
1:15 AM 41.0 °F 36.4 °F 14.0 °F 33% 30.04 in 10.0 mi SSE 6.9 mph - N/A   Clear
1:35 AM 41.0 °F 36.4 °F 14.0 °F 33% 30.03 in 10.0 mi South 6.9 mph - N/A   Clear
1:55 AM 41.0 °F 35.8 °F 14.0 °F 33% 30.03 in 10.0 mi SSE 8.1 mph - N/A   Clear
2:15 AM 41.0 °F 35.8 °F 14.0 °F 33% 30.02 in 10.0 mi South 8.1 mph - N/A   Clear
2:35 AM 39.2 °F 33.6 °F 14.0 °F 36% 30.01 in 10.0 mi South 8.1 mph - N/A   Clear
2:55 AM 39.2 °F 33.0 °F 14.0 °F 36% 30.00 in 10.0 mi South 9.2 mph - N/A   Clear
3:15 AM 37.4 °F 30.8 °F 12.2 °F 36% 30.00 in 10.0 mi South 9.2 mph - N/A   Clear
3:55 AM 39.2 °F 33.6 °F 14.0 °F 36% 30.00 in 10.0 mi SSE 8.1 mph - N/A   Clear
4:15 AM 39.2 °F 34.2 °F 14.0 °F 36% 30.01 in 10.0 mi South 6.9 mph - N/A   Clear
4:35 AM 37.4 °F 32.1 °F 14.0 °F 38% 30.01 in 10.0 mi South 6.9 mph - N/A   Clear
4:55 AM 37.4 °F 32.1 °F 14.0 °F 38% 30.01 in 10.0 mi South 6.9 mph - N/A   Clear
5:15 AM 37.4 °F 32.1 °F 14.0 °F 38% 30.01 in 10.0 mi South 6.9 mph - N/A   Clear
5:35 AM 37.4 °F 32.1 °F 14.0 °F 38% 30.01 in 10.0 mi SSE 6.9 mph - N/A   Clear
5:55 AM 37.4 °F 32.1 °F 14.0 °F 38% 30.02 in 10.0 mi South 6.9 mph - N/A   Clear
6:15 AM 35.6 °F 30.7 °F 12.2 °F 38% 30.02 in 10.0 mi South 5.8 mph - N/A   Clear
6:35 AM 35.6 °F 29.9 °F 12.2 °F 38% 30.02 in 10.0 mi South 6.9 mph - N/A   Clear
6:55 AM 35.6 °F 30.7 °F 14.0 °F 41% 30.03 in 10.0 mi South 5.8 mph - N/A   Clear
7:15 AM 39.2 °F 35.9 °F 14.0 °F 36% 30.04 in 10.0 mi South 4.6 mph - N/A   Clear
7:35 AM 41.0 °F 37.1 °F 14.0 °F 33% 30.04 in 10.0 mi South 5.8 mph - N/A   Clear
7:55 AM 42.8 °F 39.3 °F 14.0 °F 31% 30.05 in 10.0 mi South 5.8 mph - N/A   Clear
8:15 AM 44.6 °F 41.4 °F 14.0 °F 29% 30.05 in 10.0 mi South 5.8 mph - N/A   Clear
8:35 AM 44.6 °F 40.7 °F 14.0 °F 29% 30.06 in 10.0 mi South 6.9 mph - N/A   Clear
8:55 AM 46.4 °F 43.5 °F 15.8 °F 29% 30.06 in 10.0 mi SSE 5.8 mph - N/A   Clear
9:15 AM 48.2 °F - 15.8 °F 27% 30.06 in 10.0 mi SSE 6.9 mph - N/A   Clear
9:35 AM 50.0 °F - 15.8 °F 26% 30.05 in 10.0 mi SE 5.8 mph - N/A   Clear
9:55 AM 50.0 °F - 15.8 °F 26% 30.04 in 10.0 mi SE 4.6 mph - N/A   Clear
10:15 AM 53.6 °F - 17.6 °F 24% 30.03 in 10.0 mi SE 5.8 mph - N/A   Clear
10:35 AM 57.2 °F - 19.4 °F 23% 30.03 in 10.0 mi SE 5.8 mph - N/A   Clear
10:55 AM 59.0 °F - 19.4 °F 22% 30.02 in 10.0 mi ESE 5.8 mph - N/A   Clear
11:15 AM 62.6 °F - 21.2 °F 20% 30.01 in 10.0 mi ESE 5.8 mph - N/A   Clear
11:35 AM 66.2 °F - 23.0 °F 19% 30.01 in 10.0 mi SE 9.2 mph - N/A   Clear
11:55 AM 68.0 °F - 23.0 °F 18% 30.00 in 10.0 mi SE 8.1 mph - N/A   Clear
12:15 PM 71.6 °F - 23.0 °F 16% 29.98 in 10.0 mi ESE 9.2 mph - N/A   Clear
12:35 PM 73.4 °F - 23.0 °F 15% 29.97 in 10.0 mi SSE 9.2 mph - N/A   Clear
12:55 PM 75.2 °F - 23.0 °F 14% 29.96 in 10.0 mi SSE 9.2 mph - N/A   Clear
1:15 PM 75.2 °F - 23.0 °F 14% 29.95 in 10.0 mi SSE 11.5 mph - N/A   Clear
1:35 PM 75.2 °F - 23.0 °F 14% 29.94 in 10.0 mi SSE 10.4 mph 16.1 mph N/A   Clear
1:55 PM 75.2 °F - 23.0 °F 14% 29.92 in 10.0 mi SSE 15.0 mph - N/A   Clear
2:15 PM 75.2 °F - 23.0 °F 14% 29.92 in 10.0 mi SSE 13.8 mph - N/A   Clear
2:35 PM 77.0 °F - 24.8 °F 14% 29.91 in 10.0 mi SE 13.8 mph 18.4 mph N/A   Clear
2:55 PM 78.8 °F - 23.0 °F 13% 29.91 in 10.0 mi SSE 16.1 mph - N/A   Clear
3:15 PM 77.0 °F - 23.0 °F 13% 29.90 in 10.0 mi SSE 17.3 mph 21.9 mph N/A   Clear
3:35 PM 77.0 °F - 23.0 °F 13% 29.90 in 10.0 mi SSE 16.1 mph 21.9 mph N/A   Clear
3:55 PM 77.0 °F - 23.0 °F 13% 29.90 in 10.0 mi South 16.1 mph - N/A   Clear
4:15 PM 75.2 °F - 23.0 °F 14% 29.90 in 10.0 mi SSE 20.7 mph 24.2 mph N/A   Clear
4:35 PM 73.4 °F - 23.0 °F 15% 29.90 in 10.0 mi SSE 17.3 mph - N/A   Clear
4:55 PM 73.4 °F - 23.0 °F 15% 29.90 in 10.0 mi SSE 17.3 mph 21.9 mph N/A   Clear
6:35 PM 64.4 °F - 23.0 °F 21% 29.92 in 10.0 mi SSE 11.5 mph - N/A   Clear
6:55 PM 62.6 °F - 23.0 °F 22% 29.93 in 10.0 mi SSE 9.2 mph - N/A   Clear
7:15 PM 62.6 °F - 23.0 °F 22% 29.93 in 10.0 mi SSE 10.4 mph - N/A   Clear
7:35 PM 62.6 °F - 23.0 °F 22% 29.94 in 10.0 mi South 9.2 mph - N/A   Clear
7:55 PM 62.6 °F - 23.0 °F 22% 29.94 in 10.0 mi South 13.8 mph - N/A   Clear
8:15 PM 62.6 °F - 23.0 °F 22% 29.94 in 10.0 mi South 12.7 mph - N/A   Clear
8:35 PM 59.0 °F - 23.0 °F 25% 29.95 in 10.0 mi South 11.5 mph - N/A   Clear
8:55 PM 59.0 °F - 23.0 °F 25% 29.96 in 10.0 mi South 13.8 mph - N/A   Clear
9:15 PM 59.0 °F - 23.0 °F 25% 29.96 in 10.0 mi SSE 13.8 mph - N/A   Clear
9:35 PM 60.8 °F - 23.0 °F 23% 29.96 in 10.0 mi SSE 18.4 mph - N/A   Clear
9:55 PM 59.0 °F - 23.0 °F 25% 29.97 in 10.0 mi SSE 15.0 mph - N/A   Clear
10:15 PM 59.0 °F - 24.8 °F 27% 29.97 in 10.0 mi SSE 16.1 mph 19.6 mph N/A   Clear
10:35 PM 59.0 °F - 24.8 °F 27% 29.96 in 10.0 mi SSE 17.3 mph - N/A   Clear
10:55 PM 59.0 °F - 26.6 °F 29% 29.97 in 10.0 mi SSE 19.6 mph 25.3 mph N/A   Clear
11:15 PM 57.2 °F - 28.4 °F 33% 29.96 in 10.0 mi SSE 16.1 mph - N/A   Clear
11:35 PM 57.2 °F - 28.4 °F 33% 29.97 in 10.0 mi South 18.4 mph 24.2 mph N/A   Clear
11:55 PM 57.2 °F - 28.4 °F 33% 29.97 in 10.0 mi SSE 16.1 mph 21.9 mph N/A   Clear